• en Suisse
  • Liste des pays
  • À 7 jours
  • Température de l'eau
  • Carte satellitaire
  • Carte météo
  • Widgets météo
  • user-avatar
    Se connecter

    Météo par heure à Seredyntsi

    Ce jour, 24 Septembre, Lundi

    Heure Température Précipitation Vent Pression Humidité
    00:00 +11°C° 0 mm 6 m/s 724 mmHg 57%
    01:00 +11°C° 0 mm 7 m/s 723 mmHg 57%
    02:00 +11°C° 0 mm 4 m/s 722 mmHg 60%
    03:00 +12°C° 0.1 mm 5 m/s 721 mmHg 63%
    04:00 +12°C° 0.1 mm 5 m/s 721 mmHg 65%
    05:00 +13°C° 0.1 mm 6 m/s 720 mmHg 68%
    06:00 +12°C° 0.3 mm 7 m/s 721 mmHg 72%
    07:00 +12°C° 0.3 mm 9 m/s 722 mmHg 77%
    08:00 +12°C° 0 mm 9 m/s 722 mmHg 84%
    09:00 +11°C° 0.2 mm 10 m/s 723 mmHg 82%
    10:00 +9°C° 0.2 mm 10 m/s 724 mmHg 80%
    11:00 +7°C° 0.2 mm 10 m/s 725 mmHg 78%
    12:00 +7°C° 0 mm 10 m/s 726 mmHg 75%
    13:00 +8°C° 0 mm 9 m/s 727 mmHg 73%
    14:00 +8°C° 0 mm 9 m/s 728 mmHg 71%
    15:00 +8°C° 0.1 mm 9 m/s 728 mmHg 69%
    16:00 +8°C° 0.1 mm 9 m/s 728 mmHg 68%
    17:00 +7°C° 0.1 mm 9 m/s 729 mmHg 66%
    18:00 +7°C° 0 mm 8 m/s 729 mmHg 67%
    19:00 +6°C° 0 mm 7 m/s 730 mmHg 68%
    20:00 +5°C° 0 mm 7 m/s 730 mmHg 70%
    21:00 +5°C° 0 mm 7 m/s 730 mmHg 71%
    22:00 +5°C° 0 mm 7 m/s 730 mmHg 73%
    23:00 +4°C° 0 mm 7 m/s 731 mmHg 74%

    Demain, 25 Septembre, Mardi

    Heure Température Précipitation Vent Pression Humidité
    00:00 +4°C° 0 mm 7 m/s 731 mmHg 76%
    01:00 +4°C° 0 mm 7 m/s 731 mmHg 78%
    02:00 +5°C° 0 mm 8 m/s 732 mmHg 79%
    03:00 +4°C° 0 mm 7 m/s 732 mmHg 80%
    04:00 +4°C° 0 mm 7 m/s 732 mmHg 80%
    05:00 +3°C° 0 mm 7 m/s 732 mmHg 80%
    06:00 +3°C° 0 mm 7 m/s 733 mmHg 78%
    07:00 +4°C° 0 mm 8 m/s 734 mmHg 76%
    08:00 +4°C° 0 mm 8 m/s 734 mmHg 74%
    09:00 +5°C° 0 mm 8 m/s 735 mmHg 69%
    10:00 +6°C° 0 mm 8 m/s 736 mmHg 64%
    11:00 +7°C° 0 mm 8 m/s 736 mmHg 58%
    12:00 +9°C° 0.3 mm 8 m/s 736 mmHg 58%
    13:00 +9°C° 0.3 mm 8 m/s 737 mmHg 57%
    14:00 +9°C° 0.3 mm 8 m/s 737 mmHg 57%
    15:00 +9°C° 0.3 mm 7 m/s 737 mmHg 59%
    16:00 +8°C° 0.3 mm 7 m/s 738 mmHg 62%
    17:00 +8°C° 0.3 mm 6 m/s 738 mmHg 65%
    18:00 +7°C° 0.1 mm 6 m/s 738 mmHg 70%
    19:00 +6°C° 0.1 mm 5 m/s 739 mmHg 75%
    20:00 +5°C° 0.1 mm 5 m/s 739 mmHg 79%
    21:00 +5°C° 0 mm 5 m/s 740 mmHg 81%
    22:00 +3°C° 0 mm 5 m/s 740 mmHg 83%
    23:00 +3°C° 0 mm 5 m/s 741 mmHg 85%

    Après-demain, 26 Septembre, Mercredi

    Heure Température Précipitation Vent Pression Humidité
    00:00 +3°C° 0 mm 4 m/s 741 mmHg 86%
    01:00 +3°C° 0 mm 4 m/s 742 mmHg 88%
    02:00 +3°C° 0 mm 4 m/s 742 mmHg 89%
    03:00 +1°C° 0 mm 4 m/s 742 mmHg 90%
    04:00 +2°C° 0 mm 3 m/s 742 mmHg 91%
    05:00 +1°C° 0 mm 3 m/s 743 mmHg 92%
    06:00 +2°C° 0 mm 3 m/s 743 mmHg 89%
    07:00 +2°C° 0 mm 3 m/s 743 mmHg 86%
    08:00 +3°C° 0 mm 4 m/s 744 mmHg 83%
    09:00 +5°C° 0 mm 4 m/s 744 mmHg 75%
    10:00 +7°C° 0 mm 4 m/s 744 mmHg 67%
    11:00 +8°C° 0 mm 4 m/s 744 mmHg 59%
    12:00 +10°C° 0 mm 4 m/s 744 mmHg 55%
    13:00 +10°C° 0 mm 4 m/s 744 mmHg 52%
    14:00 +11°C° 0 mm 4 m/s 743 mmHg 48%
    15:00 +11°C° 0 mm 4 m/s 743 mmHg 51%
    16:00 +10°C° 0 mm 3 m/s 742 mmHg 53%
    17:00 +10°C° 0 mm 3 m/s 742 mmHg 56%
    18:00 +9°C° 0 mm 3 m/s 742 mmHg 59%
    19:00 +8°C° 0 mm 3 m/s 742 mmHg 62%
    20:00 +7°C° 0 mm 2 m/s 742 mmHg 65%
    21:00 +5°C° 0 mm 3 m/s 741 mmHg 64%
    22:00 +5°C° 0 mm 3 m/s 741 mmHg 63%
    23:00 +5°C° 0 mm 3 m/s 741 mmHg 62%

    27 Septembre, Jeudi

    Heure Température Précipitation Vent Pression Humidité
    00:00 +5°C° 0 mm 4 m/s 740 mmHg 61%
    01:00 +5°C° 0 mm 4 m/s 740 mmHg 60%
    02:00 +5°C° 0 mm 4 m/s 740 mmHg 59%
    03:00 +5°C° 0 mm 4 m/s 739 mmHg 57%
    04:00 +6°C° 0 mm 5 m/s 739 mmHg 56%
    05:00 +6°C° 0 mm 5 m/s 738 mmHg 55%
    06:00 +7°C° 0 mm 5 m/s 738 mmHg 54%
    07:00 +7°C° 0 mm 6 m/s 738 mmHg 53%
    08:00 +8°C° 0 mm 6 m/s 738 mmHg 51%
    09:00 +9°C° 0 mm 7 m/s 738 mmHg 50%
    10:00 +11°C° 0 mm 7 m/s 738 mmHg 49%
    11:00 +12°C° 0 mm 7 m/s 738 mmHg 49%
    12:00 +14°C° 0 mm 7 m/s 737 mmHg 50%
    13:00 +15°C° 0 mm 7 m/s 737 mmHg 51%
    14:00 +16°C° 0 mm 8 m/s 737 mmHg 52%
    15:00 +16°C° 0 mm 7 m/s 736 mmHg 55%
    16:00 +16°C° 0 mm 6 m/s 736 mmHg 59%
    17:00 +15°C° 0 mm 6 m/s 736 mmHg 62%
    18:00 +14°C° 0 mm 5 m/s 736 mmHg 65%
    19:00 +13°C° 0 mm 5 m/s 736 mmHg 68%
    20:00 +12°C° 0 mm 5 m/s 736 mmHg 70%
    21:00 +12°C° 0 mm 4 m/s 736 mmHg 70%
    22:00 +11°C° 0 mm 4 m/s 736 mmHg 70%
    23:00 +11°C° 0 mm 4 m/s 736 mmHg 70%

    28 Septembre, Vendredi

    Heure Température Précipitation Vent Pression Humidité
    00:00 +11°C° 0 mm 4 m/s 736 mmHg 71%
    01:00 +11°C° 0 mm 4 m/s 736 mmHg 71%
    02:00 +11°C° 0 mm 3 m/s 735 mmHg 71%
    03:00 +10°C° 0 mm 3 m/s 735 mmHg 73%
    04:00 +10°C° 0 mm 3 m/s 735 mmHg 76%
    05:00 +9°C° 0 mm 3 m/s 734 mmHg 78%
    06:00 +10°C° 0 mm 3 m/s 734 mmHg 76%
    07:00 +11°C° 0 mm 3 m/s 734 mmHg 75%
    08:00 +12°C° 0 mm 4 m/s 734 mmHg 73%
    09:00 +14°C° 0 mm 4 m/s 734 mmHg 69%
    10:00 +17°C° 0 mm 4 m/s 734 mmHg 65%
    11:00 +19°C° 0 mm 5 m/s 734 mmHg 60%
    12:00 +20°C° 0 mm 5 m/s 733 mmHg 59%
    13:00 +20°C° 0 mm 5 m/s 733 mmHg 58%
    14:00 +21°C° 0 mm 5 m/s 733 mmHg 56%
    15:00 +21°C° 0 mm 4 m/s 732 mmHg 59%
    16:00 +20°C° 0 mm 3 m/s 732 mmHg 63%
    17:00 +20°C° 0 mm 2 m/s 732 mmHg 66%
    18:00 +18°C° 0 mm 2 m/s 731 mmHg 71%
    19:00 +17°C° 0 mm 2 m/s 731 mmHg 76%
    20:00 +15°C° 0 mm 2 m/s 731 mmHg 81%
    21:00 +14°C° 0 mm 2 m/s 731 mmHg 82%
    22:00 +14°C° 0 mm 2 m/s 731 mmHg 82%
    23:00 +13°C° 0 mm 2 m/s 731 mmHg 83%

    29 Septembre, Samedi

    Heure Température Précipitation Vent Pression Humidité
    00:00 +13°C° 0 mm 2 m/s 731 mmHg 84%
    01:00 +12°C° 0 mm 2 m/s 731 mmHg 85%
    02:00 +12°C° 0 mm 1 m/s 731 mmHg 87%
    03:00 +11°C° 0 mm 1 m/s 731 mmHg 88%
    04:00 +11°C° 0 mm 1 m/s 731 mmHg 90%
    05:00 +11°C° 0 mm 1 m/s 730 mmHg 91%
    06:00 +10°C° 0.1 mm 2 m/s 731 mmHg 90%
    07:00 +10°C° 0.1 mm 3 m/s 731 mmHg 89%
    08:00 +10°C° 0.1 mm 4 m/s 731 mmHg 87%
    09:00 +8°C° 0.5 mm 5 m/s 732 mmHg 87%
    10:00 +8°C° 0.5 mm 5 m/s 733 mmHg 86%
    11:00 +7°C° 0.5 mm 6 m/s 733 mmHg 85%
    12:00 +7°C° 0.4 mm 6 m/s 734 mmHg 80%
    13:00 +8°C° 0.4 mm 5 m/s 734 mmHg 74%
    14:00 +8°C° 0.4 mm 5 m/s 734 mmHg 68%
    15:00 +8°C° 0 mm 4 m/s 735 mmHg 67%
    16:00 +8°C° 0 mm 4 m/s 735 mmHg 65%
    17:00 +9°C° 0 mm 3 m/s 735 mmHg 63%
    18:00 +8°C° 0 mm 3 m/s 735 mmHg 67%
    19:00 +7°C° 0 mm 2 m/s 736 mmHg 71%
    20:00 +6°C° 0 mm 2 m/s 736 mmHg 75%
    21:00 +5°C° 0 mm 2 m/s 736 mmHg 76%
    22:00 +5°C° 0 mm 2 m/s 737 mmHg 77%
    23:00 +4°C° 0 mm 2 m/s 737 mmHg 77%
    Voir plus